Find Starlink 35889

NORAD ID: 67189 Int'l Des: 2025-303 Owner: SPXS Country: US Constellation: starlink operational
LEOCIRCULAR

当前视图

正在加载3D地球...

关于 Starlink 35889

正在加载描述...

即将过境

Passes for default location (London). Set your location on the main map for personalized predictions.

高度历史

Loading altitude history...

两行轨道根数

1 67189U 25303AC 26150.17832573 .00019860 00000-0 72885-3 0 9991
2 67189 42.9985 210.8632 0001062 267.5495 92.5235 15.27598790 25195
Epoch: May 30, 2026 • Age: 6 hours

当前状态

高度 483.6 km
速度 7.63 km/s
星下点 -5.85°S, 157.37°E
发射日期 Dec 17, 2025
运行时间 0.4 years
类型 internet

技术详情

分类 Payload
质量 575.00 kg
干质量 530.00 kg
总质量 575.00 kg
长度 0.30 m
直径 4.10 m
跨度 29.00 m
形状 Box + pan
制造商 SPXS
平台类型 Starlink V2MO
阶段状态 In Orbit
所有者/国家 SPXS/US

Most Searched